CIRIS (45121 NORAD) Tracking and Keplerian Element Data

This shows tracking and keplerian element data for the satellite.

Feedback or suggestion? Click here.




ElementValue
Catalog45121
NameCIRIS
Epoch Orbit853
Epoch Day88.1248054
Epoch Year2020
RAAN36.1752
Inclination51.6451
Eccentricity0.0012171
Argument of Perigee117.8228
Mean Anonmoly242.3988
Mean Motion15.33366073
Decay Rate8.46E-06
L11 45121U 19071L 20088.12480540 .00000846 00000-0 37388-4 0 9994
L22 45121 51.6451 36.1752 0012171 117.8228 242.3988 15.33366073 8531

Live tracking and technical data element details for CIRIS (NORAD 45121). CIRIS can be tracked NOW for your location showing map with azimuth and elevation plus other details from your city location.

Track the satellite on the map from your city or location and see movement details for azimuth, elevation, latitude, longitude, range, height, and movement on the map or in text.







IsCatalogInMostPopularTable: catalog: 45121, numindb: 14
Update: records affected: 1



GetName: 45121 CIRIS

Hit Count: updated at: Sat, 28 Mar 2020 21:07:32 GMT